Time,TemperatureF,DewpointF,PressureIn,WindDirection,WindDirectionDegrees,WindSpeedMPH,WindSpeedGustMPH,Humidity,HourlyPrecipIn,Conditions,Clouds,dailyrainin,SoftwareType,DateUTC
2013-06-30 00:09:00,77.9,76.0,29.88,SSW,203,0.0,-999.0,94,-99.99,,,0.04,weatherlink.com 1.10,2013-06-30 04:09:00,
2013-06-30 00:24:00,77.9,76.0,29.88,SSW,205,1.0,-999.0,94,-99.99,,,0.04,weatherlink.com 1.10,2013-06-30 04:24:00,
2013-06-30 00:39:00,77.8,76.0,29.87,South,171,4.0,-999.0,93,-99.99,,,0.04,weatherlink.com 1.10,2013-06-30 04:39:00,
2013-06-30 00:54:00,77.7,76.0,29.87,South,190,2.0,-999.0,93,-99.99,,,0.04,weatherlink.com 1.10,2013-06-30 04:54:00,
2013-06-30 01:09:00,77.6,76.0,29.87,South,172,0.0,-999.0,93,-99.99,,,0.04,weatherlink.com 1.10,2013-06-30 05:09:00,
2013-06-30 01:24:00,77.5,75.0,29.87,SSE,150,1.0,-999.0,93,-99.99,,,0.00,weatherlink.com 1.10,2013-06-30 05:24:00,
2013-06-30 01:39:00,77.6,75.0,29.87,SE,146,0.0,-999.0,92,-99.99,,,0.00,weatherlink.com 1.10,2013-06-30 05:39:00,
2013-06-30 01:54:00,77.6,75.0,29.86,SSE,155,2.0,-999.0,91,-99.99,,,0.00,weatherlink.com 1.10,2013-06-30 05:54:00,
2013-06-30 02:09:00,77.4,75.0,29.86,South,173,2.0,-999.0,91,-99.99,,,0.00,weatherlink.com 1.10,2013-06-30 06:09:00,
2013-06-30 02:24:00,77.2,75.0,29.86,SSW,202,2.0,-999.0,91,-99.99,,,0.00,weatherlink.com 1.10,2013-06-30 06:24:00,
2013-06-30 02:39:00,77.4,74.0,29.86,SW,217,0.0,-999.0,90,-99.99,,,0.00,weatherlink.com 1.10,2013-06-30 06:39:00,
2013-06-30 02:54:00,77.6,75.0,29.86,SSW,206,0.0,-999.0,90,-99.99,,,0.00,weatherlink.com 1.10,2013-06-30 06:54:00,
2013-06-30 03:09:00,77.4,74.0,29.85,SW,217,0.0,-999.0,90,-99.99,,,0.00,weatherlink.com 1.10,2013-06-30 07:09:00,
2013-06-30 03:24:00,77.4,74.0,29.85,South,191,0.0,-999.0,90,-99.99,,,0.00,weatherlink.com 1.10,2013-06-30 07:24:00,
2013-06-30 03:39:00,77.2,75.0,29.85,South,188,0.0,-999.0,91,-99.99,,,0.00,weatherlink.com 1.10,2013-06-30 07:39:00,
2013-06-30 03:54:00,77.1,74.0,29.85,South,171,0.0,-999.0,91,-99.99,,,0.00,weatherlink.com 1.10,2013-06-30 07:54:00,
2013-06-30 04:09:00,77.0,74.0,29.86,SSE,161,0.0,-999.0,91,-99.99,,,0.00,weatherlink.com 1.10,2013-06-30 08:09:00,
2013-06-30 04:24:00,76.9,75.0,29.86,SSW,194,0.0,-999.0,92,-99.99,,,0.00,weatherlink.com 1.10,2013-06-30 08:24:00,
2013-06-30 04:39:00,76.6,74.0,29.84,SSW,205,0.0,-999.0,92,-99.99,,,0.00,weatherlink.com 1.10,2013-06-30 08:39:00,
2013-06-30 04:54:00,76.5,74.0,29.84,SSW,203,0.0,-999.0,92,-99.99,,,0.00,weatherlink.com 1.10,2013-06-30 08:54:00,
2013-06-30 05:09:00,76.5,74.0,29.84,South,173,0.0,-999.0,93,-99.99,,,0.00,weatherlink.com 1.10,2013-06-30 09:09:00,
2013-06-30 05:24:00,76.5,74.0,29.85,SSE,167,0.0,-999.0,93,-99.99,,,0.00,weatherlink.com 1.10,2013-06-30 09:24:00,
2013-06-30 05:40:00,76.6,75.0,29.86,SSE,161,0.0,-999.0,93,-99.99,,,0.00,weatherlink.com 1.10,2013-06-30 09:40:00,
2013-06-30 05:55:00,76.6,75.0,29.86,SSW,198,0.0,-999.0,93,-99.99,,,0.00,weatherlink.com 1.10,2013-06-30 09:55:00,
2013-06-30 06:10:00,76.6,75.0,29.86,SSW,200,0.0,-999.0,93,-99.99,,,0.00,weatherlink.com 1.10,2013-06-30 10:10:00,
2013-06-30 06:25:00,76.5,74.0,29.86,SSW,192,0.0,-999.0,93,-99.99,,,0.00,weatherlink.com 1.10,2013-06-30 10:25:00,
2013-06-30 06:40:00,76.5,74.0,29.86,SSW,207,0.0,-999.0,93,-99.99,,,0.00,weatherlink.com 1.10,2013-06-30 10:40:00,
2013-06-30 06:55:00,76.7,75.0,29.86,SW,229,2.0,-999.0,93,-99.99,,,0.00,weatherlink.com 1.10,2013-06-30 10:55:00,
2013-06-30 07:10:00,76.9,75.0,29.87,SSW,198,0.0,-999.0,93,-99.99,,,0.00,weatherlink.com 1.10,2013-06-30 11:10:00,
2013-06-30 07:25:00,77.4,75.0,29.87,SSW,213,0.0,-999.0,93,-99.99,,,0.00,weatherlink.com 1.10,2013-06-30 11:25:00,
2013-06-30 07:40:00,78.6,76.0,29.88,South,176,2.0,-999.0,92,-99.99,,,0.00,weatherlink.com 1.10,2013-06-30 11:40:00,
2013-06-30 07:55:00,80.4,77.0,29.88,South,188,1.0,-999.0,89,-99.99,,,0.00,weatherlink.com 1.10,2013-06-30 11:55:00,
2013-06-30 08:10:00,81.7,78.0,29.88,WSW,241,0.0,-999.0,87,-99.99,,,0.00,weatherlink.com 1.10,2013-06-30 12:10:00,
2013-06-30 08:25:00,82.9,78.0,29.88,SSW,192,1.0,-999.0,85,-99.99,,,0.00,weatherlink.com 1.10,2013-06-30 12:25:00,
2013-06-30 08:40:00,83.5,78.0,29.88,South,191,2.0,-999.0,83,-99.99,,,0.00,weatherlink.com 1.10,2013-06-30 12:40:00,
2013-06-30 08:55:00,84.2,78.0,29.89,SW,221,2.0,-999.0,81,-99.99,,,0.00,weatherlink.com 1.10,2013-06-30 12:55:00,
2013-06-30 09:10:00,85.1,78.0,29.89,SSE,163,4.0,-999.0,80,-99.99,,,0.00,weatherlink.com 1.10,2013-06-30 13:10:00,
2013-06-30 09:25:00,85.6,78.0,29.88,SW,217,3.0,-999.0,77,-99.99,,,0.00,weatherlink.com 1.10,2013-06-30 13:25:00,
2013-06-30 09:40:00,85.7,77.0,29.88,SSE,164,6.0,-999.0,76,-99.99,,,0.00,weatherlink.com 1.10,2013-06-30 13:40:00,
2013-06-30 09:55:00,87.1,77.0,29.88,South,172,2.0,-999.0,72,-99.99,,,0.00,weatherlink.com 1.10,2013-06-30 13:55:00,
2013-06-30 10:10:00,88.3,77.0,29.88,South,174,1.0,-999.0,69,-99.99,,,0.00,weatherlink.com 1.10,2013-06-30 14:10:00,
2013-06-30 10:25:00,88.7,76.0,29.89,SSE,158,6.0,-999.0,67,-99.99,,,0.00,weatherlink.com 1.10,2013-06-30 14:25:00,
2013-06-30 10:40:00,89.3,76.0,29.89,SW,219,2.0,-999.0,65,-99.99,,,0.00,weatherlink.com 1.10,2013-06-30 14:40:00,
2013-06-30 10:55:00,89.2,76.0,29.89,South,169,1.0,-999.0,66,-99.99,,,0.00,weatherlink.com 1.10,2013-06-30 14:55:00,
2013-06-30 11:10:00,89.5,76.0,29.89,SW,230,1.0,-999.0,65,-99.99,,,0.00,weatherlink.com 1.10,2013-06-30 15:10:00,
2013-06-30 11:25:00,90.0,76.0,29.88,SSW,198,2.0,-999.0,63,-99.99,,,0.00,weatherlink.com 1.10,2013-06-30 15:25:00,
2013-06-30 11:40:00,89.6,75.0,29.89,SSE,164,6.0,-999.0,63,-99.99,,,0.00,weatherlink.com 1.10,2013-06-30 15:40:00,
2013-06-30 11:55:00,90.6,76.0,29.88,SSW,196,4.0,-999.0,63,-99.99,,,0.00,weatherlink.com 1.10,2013-06-30 15:55:00,
2013-06-30 12:10:00,88.4,75.0,29.89,SW,218,4.0,-999.0,65,-99.99,,,0.00,weatherlink.com 1.10,2013-06-30 16:10:00,
2013-06-30 12:25:00,84.3,77.0,29.89,SSW,213,2.0,-999.0,78,-99.99,,,0.14,weatherlink.com 1.10,2013-06-30 16:25:00,
2013-06-30 12:40:00,81.7,75.0,29.89,ESE,114,6.0,-999.0,80,-99.99,,,0.15,weatherlink.com 1.10,2013-06-30 16:40:00,
2013-06-30 12:55:00,78.6,74.0,29.89,SSW,195,0.0,-999.0,86,-99.99,,,0.24,weatherlink.com 1.10,2013-06-30 16:55:00,
2013-06-30 13:10:00,79.2,75.0,29.89,ESE,121,0.0,-999.0,88,-99.99,,,0.25,weatherlink.com 1.10,2013-06-30 17:10:00,
2013-06-30 13:25:00,80.3,77.0,29.88,SSE,148,1.0,-999.0,88,-99.99,,,0.25,weatherlink.com 1.10,2013-06-30 17:25:00,
2013-06-30 13:40:00,82.7,78.0,29.87,SSE,166,1.0,-999.0,85,-99.99,,,0.25,weatherlink.com 1.10,2013-06-30 17:40:00,
2013-06-30 13:55:00,84.5,78.0,29.86,SE,133,6.0,-999.0,80,-99.99,,,0.25,weatherlink.com 1.10,2013-06-30 17:55:00,
2013-06-30 14:10:00,86.4,77.0,29.86,SE,140,8.0,-999.0,74,-99.99,,,0.25,weatherlink.com 1.10,2013-06-30 18:10:00,
2013-06-30 14:25:00,87.9,78.0,29.85,ESE,105,8.0,-999.0,72,-99.99,,,0.25,weatherlink.com 1.10,2013-06-30 18:25:00,
2013-06-30 14:40:00,88.8,78.0,29.85,WSW,237,7.0,-999.0,70,-99.99,,,0.25,weatherlink.com 1.10,2013-06-30 18:40:00,
2013-06-30 14:55:00,88.3,76.0,29.84,SW,232,10.0,-999.0,67,-99.99,,,0.25,weatherlink.com 1.10,2013-06-30 18:55:00,
2013-06-30 15:10:00,87.0,76.0,29.85,SSW,213,0.0,-999.0,70,-99.99,,,0.27,weatherlink.com 1.10,2013-06-30 19:10:00,
2013-06-30 15:25:00,84.1,75.0,29.86,WSW,246,0.0,-999.0,75,-99.99,,,0.27,weatherlink.com 1.10,2013-06-30 19:25:00,
2013-06-30 15:40:00,84.3,75.0,29.86,South,191,1.0,-999.0,74,-99.99,,,0.27,weatherlink.com 1.10,2013-06-30 19:40:00,
2013-06-30 15:55:00,84.9,76.0,29.86,SSW,203,0.0,-999.0,74,-99.99,,,0.27,weatherlink.com 1.10,2013-06-30 19:55:00,
2013-06-30 16:10:00,81.7,73.0,29.87,ENE,78,2.0,-999.0,76,-99.99,,,0.27,weatherlink.com 1.10,2013-06-30 20:10:00,
2013-06-30 16:25:00,80.1,74.0,29.88,WSW,237,0.0,-999.0,82,-99.99,,,0.27,weatherlink.com 1.10,2013-06-30 20:25:00,
2013-06-30 16:41:00,80.1,74.0,29.87,NNW,329,2.0,-999.0,82,-99.99,,,0.27,weatherlink.com 1.10,2013-06-30 20:41:00,
2013-06-30 16:56:00,79.5,75.0,29.88,East,81,0.0,-999.0,85,-99.99,,,0.39,weatherlink.com 1.10,2013-06-30 20:56:00,
2013-06-30 17:11:00,77.6,75.0,29.88,ENE,78,0.0,-999.0,91,-99.99,,,0.57,weatherlink.com 1.10,2013-06-30 21:11:00,
2013-06-30 17:26:00,77.2,75.0,29.88,WNW,283,0.0,-999.0,92,-99.99,,,0.83,weatherlink.com 1.10,2013-06-30 21:26:00,
2013-06-30 17:41:00,77.3,75.0,29.87,SE,130,1.0,-999.0,93,-99.99,,,1.06,weatherlink.com 1.10,2013-06-30 21:41:00,
2013-06-30 17:56:00,77.8,76.0,29.87,SE,144,0.0,-999.0,94,-99.99,,,1.07,weatherlink.com 1.10,2013-06-30 21:56:00,
2013-06-30 18:11:00,78.1,76.0,29.87,NW,309,1.0,-999.0,94,-99.99,,,1.07,weatherlink.com 1.10,2013-06-30 22:11:00,
2013-06-30 18:26:00,78.3,77.0,29.86,NNE,19,0.0,-999.0,94,-99.99,,,1.07,weatherlink.com 1.10,2013-06-30 22:26:00,
2013-06-30 18:41:00,78.6,77.0,29.87,SSE,165,0.0,-999.0,94,-99.99,,,1.10,weatherlink.com 1.10,2013-06-30 22:41:00,
2013-06-30 18:56:00,74.6,72.0,29.87,NW,304,1.0,-999.0,91,-99.99,,,1.57,weatherlink.com 1.10,2013-06-30 22:56:00,
2013-06-30 19:11:00,74.4,72.0,29.87,SSW,209,0.0,-999.0,92,-99.99,,,1.58,weatherlink.com 1.10,2013-06-30 23:11:00,
2013-06-30 19:26:00,75.1,73.0,29.88,SE,146,0.0,-999.0,92,-99.99,,,1.58,weatherlink.com 1.10,2013-06-30 23:26:00,
2013-06-30 19:41:00,75.5,73.0,29.89,SE,144,0.0,-999.0,93,-99.99,,,1.58,weatherlink.com 1.10,2013-06-30 23:41:00,
2013-06-30 19:56:00,75.9,74.0,29.89,SE,144,0.0,-999.0,93,-99.99,,,1.58,weatherlink.com 1.10,2013-06-30 23:56:00,
2013-06-30 20:11:00,76.2,74.0,29.89,SE,144,0.0,-999.0,94,-99.99,,,1.58,weatherlink.com 1.10,2013-07-01 00:11:00,
2013-06-30 20:26:00,76.6,75.0,29.92,SSW,196,0.0,-999.0,94,-99.99,,,1.63,weatherlink.com 1.10,2013-07-01 00:26:00,
2013-06-30 20:41:00,75.6,74.0,29.91,SE,134,0.0,-999.0,93,-99.99,,,1.73,weatherlink.com 1.10,2013-07-01 00:41:00,
2013-06-30 20:56:00,75.6,74.0,29.91,ESE,123,0.0,-999.0,94,-99.99,,,1.73,weatherlink.com 1.10,2013-07-01 00:56:00,
2013-06-30 21:11:00,75.7,74.0,29.92,ESE,123,0.0,-999.0,95,-99.99,,,1.73,weatherlink.com 1.10,2013-07-01 01:11:00,
2013-06-30 21:26:00,76.1,75.0,29.92,ESE,123,0.0,-999.0,95,-99.99,,,1.73,weatherlink.com 1.10,2013-07-01 01:26:00,
2013-06-30 21:41:00,76.0,75.0,29.92,South,188,1.0,-999.0,95,-99.99,,,1.73,weatherlink.com 1.10,2013-07-01 01:41:00,
2013-06-30 21:56:00,76.3,75.0,29.92,South,171,0.0,-999.0,95,-99.99,,,1.73,weatherlink.com 1.10,2013-07-01 01:56:00,
2013-06-30 22:11:00,76.5,75.0,29.92,SSE,161,0.0,-999.0,94,-99.99,,,1.73,weatherlink.com 1.10,2013-07-01 02:11:00,
2013-06-30 22:26:00,76.6,75.0,29.93,SSW,210,0.0,-999.0,94,-99.99,,,1.73,weatherlink.com 1.10,2013-07-01 02:26:00,
2013-06-30 22:41:00,76.6,75.0,29.93,South,171,0.0,-999.0,94,-99.99,,,1.73,weatherlink.com 1.10,2013-07-01 02:41:00,
2013-06-30 22:56:00,76.6,75.0,29.93,SSE,148,0.0,-999.0,94,-99.99,,,1.73,weatherlink.com 1.10,2013-07-01 02:56:00,
2013-06-30 23:11:00,76.8,75.0,29.93,SSW,198,0.0,-999.0,94,-99.99,,,1.73,weatherlink.com 1.10,2013-07-01 03:11:00,
2013-06-30 23:26:00,76.7,75.0,29.93,South,172,0.0,-999.0,94,-99.99,,,1.73,weatherlink.com 1.10,2013-07-01 03:26:00,
2013-06-30 23:41:00,76.6,75.0,29.93,South,171,0.0,-999.0,95,-99.99,,,1.73,weatherlink.com 1.10,2013-07-01 03:41:00,
2013-06-30 23:56:00,76.7,75.0,29.94,SSE,167,0.0,-999.0,95,-99.99,,,1.73,weatherlink.com 1.10,2013-07-01 03:56:00,